Year,Month,Day,Hour,Minute,Value (Times are PST for temperature in C)
2008,07,20,00,00,12.00
2008,07,20,00,01,12.00
2008,07,20,00,02,12.00
2008,07,20,00,03,12.00
2008,07,20,00,04,12.00
2008,07,20,00,05,12.00
2008,07,20,00,06,12.00
2008,07,20,00,07,12.00
2008,07,20,00,08,11.90
2008,07,20,00,09,11.90
2008,07,20,00,10,11.90
2008,07,20,00,11,11.90
2008,07,20,00,12,11.90
2008,07,20,00,13,11.90
2008,07,20,00,14,11.90
2008,07,20,00,15,11.90
2008,07,20,00,16,11.90
2008,07,20,00,17,11.80
2008,07,20,00,18,11.80
2008,07,20,00,19,11.80
2008,07,20,00,20,11.80
2008,07,20,00,21,11.80
2008,07,20,00,22,11.80
2008,07,20,00,23,11.80
2008,07,20,00,24,11.70
2008,07,20,00,25,11.70
2008,07,20,00,26,11.70
2008,07,20,00,27,11.70
2008,07,20,00,28,11.60
2008,07,20,00,29,11.60
2008,07,20,00,30,11.60
2008,07,20,00,31,11.60
2008,07,20,00,32,11.60
2008,07,20,00,33,11.50
2008,07,20,00,34,11.40
2008,07,20,00,35,11.40
2008,07,20,00,36,11.40
2008,07,20,00,37,11.40
2008,07,20,00,38,11.40
2008,07,20,00,39,11.30
2008,07,20,00,40,11.30
2008,07,20,00,41,11.30
2008,07,20,00,42,11.20
2008,07,20,00,43,11.20
2008,07,20,00,44,11.20
2008,07,20,00,45,11.20
2008,07,20,00,46,11.20
2008,07,20,00,47,11.20
2008,07,20,00,48,11.10
2008,07,20,00,49,11.10
2008,07,20,00,50,11.10
2008,07,20,00,51,11.10
2008,07,20,00,52,11.10
2008,07,20,00,53,11.10
2008,07,20,00,54,11.10
2008,07,20,00,55,11.10
2008,07,20,00,56,11.10
2008,07,20,00,57,11.20
2008,07,20,00,58,11.20
2008,07,20,00,59,11.20
2008,07,20,01,00,11.20
2008,07,20,01,01,11.10
2008,07,20,01,02,11.10
2008,07,20,01,03,11.10
2008,07,20,01,04,11.20
2008,07,20,01,05,11.20
2008,07,20,01,06,11.20
2008,07,20,01,07,11.20
2008,07,20,01,08,11.20
2008,07,20,01,09,11.20
2008,07,20,01,10,11.20
2008,07,20,01,11,11.20
2008,07,20,01,12,11.20
2008,07,20,01,13,11.20
2008,07,20,01,14,11.20
2008,07,20,01,15,11.20
2008,07,20,01,16,11.20
2008,07,20,01,17,11.10
2008,07,20,01,18,11.10
2008,07,20,01,19,11.00
2008,07,20,01,20,10.90
2008,07,20,01,21,10.90
2008,07,20,01,22,10.90
2008,07,20,01,23,10.90
2008,07,20,01,24,10.90
2008,07,20,01,25,10.90
2008,07,20,01,26,10.90
2008,07,20,01,27,10.80
2008,07,20,01,28,10.80
2008,07,20,01,29,10.80
2008,07,20,01,30,10.70
2008,07,20,01,31,10.70
2008,07,20,01,32,10.70
2008,07,20,01,33,10.70
2008,07,20,01,34,10.60
2008,07,20,01,35,10.60
2008,07,20,01,36,10.60
2008,07,20,01,37,10.70
2008,07,20,01,38,10.70
2008,07,20,01,39,10.70
2008,07,20,01,40,10.70
2008,07,20,01,41,10.70
2008,07,20,01,42,10.70
2008,07,20,01,43,10.70
2008,07,20,01,44,10.70
2008,07,20,01,45,10.70
2008,07,20,01,46,10.70
2008,07,20,01,47,10.70
2008,07,20,01,48,10.60
2008,07,20,01,49,10.60
2008,07,20,01,50,10.60
2008,07,20,01,51,10.60
2008,07,20,01,52,10.60
2008,07,20,01,53,10.60
2008,07,20,01,54,10.60
2008,07,20,01,55,10.60
2008,07,20,01,56,10.50
2008,07,20,01,57,10.40
2008,07,20,01,58,10.40
2008,07,20,01,59,10.40
2008,07,20,02,00,10.40
2008,07,20,02,01,10.40
2008,07,20,02,02,10.40
2008,07,20,02,03,10.40
2008,07,20,02,04,10.50
2008,07,20,02,05,10.60
2008,07,20,02,06,10.60
2008,07,20,02,07,10.60
2008,07,20,02,08,10.60
2008,07,20,02,09,10.60
2008,07,20,02,10,10.60
2008,07,20,02,11,10.60
2008,07,20,02,12,10.70
2008,07,20,02,13,10.70
2008,07,20,02,14,10.70
2008,07,20,02,15,10.70
2008,07,20,02,16,10.70
2008,07,20,02,17,10.70
2008,07,20,02,18,10.60
2008,07,20,02,19,10.60
2008,07,20,02,20,10.60
2008,07,20,02,21,10.60
2008,07,20,02,22,10.50
2008,07,20,02,23,10.40
2008,07,20,02,24,10.40
2008,07,20,02,25,10.40
2008,07,20,02,26,10.40
2008,07,20,02,27,10.30
2008,07,20,02,28,10.30
2008,07,20,02,29,10.30
2008,07,20,02,30,10.30
2008,07,20,02,31,10.20
2008,07,20,02,32,10.20
2008,07,20,02,33,10.20
2008,07,20,02,34,10.20
2008,07,20,02,35,10.20
2008,07,20,02,36,10.10
2008,07,20,02,37,10.10
2008,07,20,02,38,10.10
2008,07,20,02,39,10.10
2008,07,20,02,40,10.10
2008,07,20,02,41,10.10
2008,07,20,02,42,10.10
2008,07,20,02,43,10.10
2008,07,20,02,44,10.10
2008,07,20,02,45,10.10
2008,07,20,02,46,10.10
2008,07,20,02,47,10.10
2008,07,20,02,48,10.10
2008,07,20,02,49,10.10
2008,07,20,02,50,10.00
2008,07,20,02,51,9.90
2008,07,20,02,52,10.00
2008,07,20,02,53,10.10
2008,07,20,02,54,10.10
2008,07,20,02,55,10.10
2008,07,20,02,56,10.10
2008,07,20,02,57,10.10
2008,07,20,02,58,10.10
2008,07,20,02,59,10.20
2008,07,20,03,00,10.20
2008,07,20,03,01,10.20
2008,07,20,03,02,10.20
2008,07,20,03,03,10.20
2008,07,20,03,04,10.20
2008,07,20,03,05,10.20
2008,07,20,03,06,10.20
2008,07,20,03,07,10.20
2008,07,20,03,08,10.10
2008,07,20,03,09,10.10
2008,07,20,03,10,10.10
2008,07,20,03,11,9.90
2008,07,20,03,12,9.90
2008,07,20,03,13,9.90
2008,07,20,03,14,9.90
2008,07,20,03,15,9.80
2008,07,20,03,16,9.80
2008,07,20,03,17,9.80
2008,07,20,03,18,9.80
2008,07,20,03,19,9.70
2008,07,20,03,20,9.70
2008,07,20,03,21,9.70
2008,07,20,03,22,9.70
2008,07,20,03,23,9.70
2008,07,20,03,24,9.70
2008,07,20,03,25,9.70
2008,07,20,03,26,9.70
2008,07,20,03,27,9.70
2008,07,20,03,28,9.70
2008,07,20,03,29,9.70
2008,07,20,03,30,9.70
2008,07,20,03,31,9.70
2008,07,20,03,32,9.70
2008,07,20,03,33,9.70
2008,07,20,03,34,9.70
2008,07,20,03,35,9.70
2008,07,20,03,36,9.60
2008,07,20,03,37,9.60
2008,07,20,03,38,9.70
2008,07,20,03,39,9.70
2008,07,20,03,40,9.70
2008,07,20,03,41,9.70
2008,07,20,03,42,9.70
2008,07,20,03,43,9.70
2008,07,20,03,44,9.70
2008,07,20,03,45,9.70
2008,07,20,03,46,9.70
2008,07,20,03,47,9.70
2008,07,20,03,48,9.70
2008,07,20,03,49,9.70
2008,07,20,03,50,9.70
2008,07,20,03,51,9.70
2008,07,20,03,52,9.70
2008,07,20,03,53,9.70
2008,07,20,03,54,9.70
2008,07,20,03,55,9.70
2008,07,20,03,56,9.70
2008,07,20,03,57,9.70
2008,07,20,03,58,9.70
2008,07,20,03,59,9.70
2008,07,20,04,00,9.70
2008,07,20,04,01,9.60
2008,07,20,04,02,9.60
2008,07,20,04,03,9.60
2008,07,20,04,04,9.60
2008,07,20,04,05,9.60
2008,07,20,04,06,9.60
2008,07,20,04,07,9.60
2008,07,20,04,08,9.60
2008,07,20,04,09,9.60
2008,07,20,04,10,9.60
2008,07,20,04,11,9.60
2008,07,20,04,12,9.50
2008,07,20,04,13,9.50
2008,07,20,04,14,9.40
2008,07,20,04,15,9.40
2008,07,20,04,16,9.30
2008,07,20,04,17,9.30
2008,07,20,04,18,9.30
2008,07,20,04,19,9.20
2008,07,20,04,20,9.20
2008,07,20,04,21,9.20
2008,07,20,04,22,9.20
2008,07,20,04,23,9.20
2008,07,20,04,24,9.10
2008,07,20,04,25,9.10
2008,07,20,04,26,9.00
2008,07,20,04,27,9.00
2008,07,20,04,28,8.90
2008,07,20,04,29,8.90
2008,07,20,04,30,8.90
2008,07,20,04,31,8.90
2008,07,20,04,32,8.90
2008,07,20,04,33,9.00
2008,07,20,04,34,9.00
2008,07,20,04,35,9.00
2008,07,20,04,36,8.90
2008,07,20,04,37,9.00
2008,07,20,04,38,9.00
2008,07,20,04,39,9.00
2008,07,20,04,40,9.00
2008,07,20,04,41,8.90
2008,07,20,04,42,8.90
2008,07,20,04,43,8.80
2008,07,20,04,44,8.80
2008,07,20,04,45,8.80
2008,07,20,04,46,8.80
2008,07,20,04,47,8.80
2008,07,20,04,48,8.80
2008,07,20,04,49,8.80
2008,07,20,04,50,8.80
2008,07,20,04,51,8.80
2008,07,20,04,52,8.80
2008,07,20,04,53,8.70
2008,07,20,04,54,8.70
2008,07,20,04,55,8.80
2008,07,20,04,56,8.80
2008,07,20,04,57,8.80
2008,07,20,04,58,8.80
2008,07,20,04,59,8.90
2008,07,20,05,00,8.90
2008,07,20,05,01,8.90
2008,07,20,05,02,9.00
2008,07,20,05,03,9.00
2008,07,20,05,04,9.10
2008,07,20,05,05,9.00
2008,07,20,05,06,9.00
2008,07,20,05,07,8.90
2008,07,20,05,08,8.90
2008,07,20,05,09,8.90
2008,07,20,05,10,8.80
2008,07,20,05,11,8.70
2008,07,20,05,12,8.70
2008,07,20,05,13,8.70
2008,07,20,05,14,8.60
2008,07,20,05,15,8.60
2008,07,20,05,16,8.60
2008,07,20,05,17,8.50
2008,07,20,05,18,8.50
2008,07,20,05,19,8.50
2008,07,20,05,20,8.50
2008,07,20,05,21,8.50
2008,07,20,05,22,8.50
2008,07,20,05,23,8.50
2008,07,20,05,24,8.50
2008,07,20,05,25,8.50
2008,07,20,05,26,8.50
2008,07,20,05,27,8.50
2008,07,20,05,28,8.50
2008,07,20,05,29,8.60
2008,07,20,05,30,8.60
2008,07,20,05,31,8.60
2008,07,20,05,32,8.60
2008,07,20,05,33,8.60
2008,07,20,05,34,8.60
2008,07,20,05,35,8.60
2008,07,20,05,36,8.60
2008,07,20,05,37,8.50
2008,07,20,05,38,8.50
2008,07,20,05,39,8.50
2008,07,20,05,40,8.50
2008,07,20,05,41,8.50
2008,07,20,05,42,8.50
2008,07,20,05,43,8.50
2008,07,20,05,44,8.50
2008,07,20,05,45,8.50
2008,07,20,05,46,8.50
2008,07,20,05,47,8.50
2008,07,20,05,48,8.50
2008,07,20,05,49,8.50
2008,07,20,05,50,8.50
2008,07,20,05,51,8.50
2008,07,20,05,52,8.40
2008,07,20,05,53,8.40
2008,07,20,05,54,8.40
2008,07,20,05,55,8.40
2008,07,20,05,56,8.40
2008,07,20,05,57,8.30
2008,07,20,05,58,8.40
2008,07,20,05,59,8.40
2008,07,20,06,00,8.40
2008,07,20,06,01,8.50
2008,07,20,06,02,8.50
2008,07,20,06,03,8.50
2008,07,20,06,04,8.50
2008,07,20,06,05,8.50
2008,07,20,06,06,8.50
2008,07,20,06,07,8.40
2008,07,20,06,08,8.40
2008,07,20,06,09,8.40
2008,07,20,06,10,8.30
2008,07,20,06,11,8.30
2008,07,20,06,12,8.30
2008,07,20,06,13,8.30
2008,07,20,06,14,8.30
2008,07,20,06,15,8.40
2008,07,20,06,16,8.40
2008,07,20,06,17,8.40
2008,07,20,06,18,8.40
2008,07,20,06,19,8.40
2008,07,20,06,20,8.40
2008,07,20,06,21,8.40
2008,07,20,06,22,8.40
2008,07,20,06,23,8.40
2008,07,20,06,24,8.40
2008,07,20,06,25,8.40
2008,07,20,06,26,8.40
2008,07,20,06,27,8.40
2008,07,20,06,28,8.40
2008,07,20,06,29,8.50
2008,07,20,06,30,8.50
2008,07,20,06,31,8.50
2008,07,20,06,32,8.50
2008,07,20,06,33,8.50
2008,07,20,06,34,8.60
2008,07,20,06,35,8.60
2008,07,20,06,36,8.60
2008,07,20,06,37,8.60
2008,07,20,06,38,8.70
2008,07,20,06,39,8.70
2008,07,20,06,40,8.70
2008,07,20,06,41,8.70
2008,07,20,06,42,8.80
2008,07,20,06,43,8.90
2008,07,20,06,44,8.90
2008,07,20,06,45,9.00
2008,07,20,06,46,9.00
2008,07,20,06,47,9.10
2008,07,20,06,48,9.10
2008,07,20,06,49,9.20
2008,07,20,06,50,9.20
2008,07,20,06,51,9.20
2008,07,20,06,52,9.30
2008,07,20,06,53,9.40
2008,07,20,06,54,9.40
2008,07,20,06,55,9.50
2008,07,20,06,56,9.60
2008,07,20,06,57,9.70
2008,07,20,06,58,9.80
2008,07,20,06,59,9.90
2008,07,20,07,00,9.90
2008,07,20,07,01,10.10
2008,07,20,07,02,10.10
2008,07,20,07,03,10.20
2008,07,20,07,04,10.20
2008,07,20,07,05,10.30
2008,07,20,07,06,10.40
2008,07,20,07,07,10.40
2008,07,20,07,08,10.50
2008,07,20,07,09,10.60
2008,07,20,07,10,10.60
2008,07,20,07,11,10.70
2008,07,20,07,12,10.80
2008,07,20,07,13,10.90
2008,07,20,07,14,11.00
2008,07,20,07,15,11.10
2008,07,20,07,16,11.20
2008,07,20,07,17,11.30
2008,07,20,07,18,11.40
2008,07,20,07,19,11.50
2008,07,20,07,20,11.60
2008,07,20,07,21,11.70
2008,07,20,07,22,11.80
2008,07,20,07,23,11.80
2008,07,20,07,24,11.90
2008,07,20,07,25,12.00
2008,07,20,07,26,12.10
2008,07,20,07,27,12.30
2008,07,20,07,28,12.40
2008,07,20,07,29,12.50
2008,07,20,07,30,12.60
2008,07,20,07,31,12.60
2008,07,20,07,32,12.70
2008,07,20,07,33,12.80
2008,07,20,07,34,12.80
2008,07,20,07,35,12.90
2008,07,20,07,36,13.00
2008,07,20,07,37,13.10
2008,07,20,07,38,13.10
2008,07,20,07,39,13.20
2008,07,20,07,40,13.20
2008,07,20,07,41,13.30
2008,07,20,07,42,13.40
2008,07,20,07,43,13.50
2008,07,20,07,44,13.60
2008,07,20,07,45,13.70
2008,07,20,07,46,13.70
2008,07,20,07,47,13.80
2008,07,20,07,48,13.90
2008,07,20,07,49,14.00
2008,07,20,07,50,14.00
2008,07,20,07,51,14.10
2008,07,20,07,52,14.10
2008,07,20,07,53,14.10
2008,07,20,07,54,14.10
2008,07,20,07,55,14.10
2008,07,20,07,56,14.10
2008,07,20,07,57,14.10
2008,07,20,07,58,14.20
2008,07,20,07,59,14.20
2008,07,20,08,00,14.20
2008,07,20,08,01,14.20
2008,07,20,08,02,14.30
2008,07,20,08,03,14.30
2008,07,20,08,04,14.40
2008,07,20,08,05,14.40
2008,07,20,08,06,14.30
2008,07,20,08,07,14.30
2008,07,20,08,08,14.20
2008,07,20,08,09,14.20
2008,07,20,08,10,14.10
2008,07,20,08,11,14.10
2008,07,20,08,12,14.10
2008,07,20,08,13,14.10
2008,07,20,08,14,14.00
2008,07,20,08,15,14.00
2008,07,20,08,16,13.90
2008,07,20,08,17,13.90
2008,07,20,08,18,13.90
2008,07,20,08,19,13.80
2008,07,20,08,20,13.80
2008,07,20,08,21,13.80
2008,07,20,08,22,13.80
2008,07,20,08,23,13.80
2008,07,20,08,24,13.80
2008,07,20,08,25,13.90
2008,07,20,08,26,13.90
2008,07,20,08,27,14.00
2008,07,20,08,28,14.00
2008,07,20,08,29,14.00
2008,07,20,08,30,13.90
2008,07,20,08,31,13.90
2008,07,20,08,32,13.90
2008,07,20,08,33,14.00
2008,07,20,08,34,14.00
2008,07,20,08,35,14.00
2008,07,20,08,36,14.10
2008,07,20,08,37,14.10
2008,07,20,08,38,14.10
2008,07,20,08,39,14.10
2008,07,20,08,40,14.20
2008,07,20,08,41,14.20
2008,07,20,08,42,14.20
2008,07,20,08,43,14.10
2008,07,20,08,44,14.10
2008,07,20,08,45,14.00
2008,07,20,08,46,14.00
2008,07,20,08,47,13.90
2008,07,20,08,48,13.80
2008,07,20,08,49,13.80
2008,07,20,08,50,13.80
2008,07,20,08,51,13.70
2008,07,20,08,52,13.70
2008,07,20,08,53,13.70
2008,07,20,08,54,13.70
2008,07,20,08,55,13.70
2008,07,20,08,56,13.70
2008,07,20,08,57,13.70
2008,07,20,08,58,13.80
2008,07,20,08,59,13.80
2008,07,20,09,00,13.80
2008,07,20,09,01,13.80
2008,07,20,09,02,13.70
2008,07,20,09,03,13.70
2008,07,20,09,04,13.70
2008,07,20,09,05,13.80
2008,07,20,09,06,13.70
2008,07,20,09,07,13.70
2008,07,20,09,08,13.70
2008,07,20,09,09,13.70
2008,07,20,09,10,13.80
2008,07,20,09,11,13.90
2008,07,20,09,12,13.90
2008,07,20,09,13,14.00
2008,07,20,09,14,14.00
2008,07,20,09,15,14.00
2008,07,20,09,16,14.00
2008,07,20,09,17,14.00
2008,07,20,09,18,14.00
2008,07,20,09,19,13.90
2008,07,20,09,20,13.90
2008,07,20,09,21,13.90
2008,07,20,09,22,13.80
2008,07,20,09,23,13.80
2008,07,20,09,24,13.80
2008,07,20,09,25,13.70
2008,07,20,09,26,13.70
2008,07,20,09,27,13.80
2008,07,20,09,28,13.80
2008,07,20,09,29,13.80
2008,07,20,09,30,13.90
2008,07,20,09,31,13.90
2008,07,20,09,32,14.00
2008,07,20,09,33,14.00
2008,07,20,09,34,14.20
2008,07,20,09,35,14.20
2008,07,20,09,36,14.30
2008,07,20,09,37,14.40
2008,07,20,09,38,14.50
2008,07,20,09,39,14.50
2008,07,20,09,40,14.60
2008,07,20,09,41,14.70
2008,07,20,09,42,14.80
2008,07,20,09,43,14.80
2008,07,20,09,44,14.90
2008,07,20,09,45,14.90
2008,07,20,09,46,14.90
2008,07,20,09,47,14.80
2008,07,20,09,48,14.80
2008,07,20,09,49,14.80
2008,07,20,09,50,14.80
2008,07,20,09,51,14.80
2008,07,20,09,52,14.80
2008,07,20,09,53,14.70
2008,07,20,09,54,14.70
2008,07,20,09,55,14.70
2008,07,20,09,56,14.70
2008,07,20,09,57,14.70
2008,07,20,09,58,14.80
2008,07,20,09,59,14.80
2008,07,20,10,00,14.80
2008,07,20,10,01,14.80
2008,07,20,10,02,14.80
2008,07,20,10,03,14.90
2008,07,20,10,04,14.90
2008,07,20,10,05,15.00
2008,07,20,10,06,15.00
2008,07,20,10,07,15.00
2008,07,20,10,08,15.00
2008,07,20,10,09,15.00
2008,07,20,10,10,15.10
2008,07,20,10,11,15.10
2008,07,20,10,12,15.10
2008,07,20,10,13,15.00
2008,07,20,10,14,15.10
2008,07,20,10,15,15.10
2008,07,20,10,16,15.20
2008,07,20,10,17,15.30
2008,07,20,10,18,15.30
2008,07,20,10,19,15.40
2008,07,20,10,20,15.40
2008,07,20,10,21,15.50
2008,07,20,10,22,15.60
2008,07,20,10,23,15.60
2008,07,20,10,24,15.60
2008,07,20,10,25,15.60
2008,07,20,10,26,15.50
2008,07,20,10,27,15.50
2008,07,20,10,28,15.60
2008,07,20,10,29,15.60
2008,07,20,10,30,15.60
2008,07,20,10,31,15.60
2008,07,20,10,32,15.70
2008,07,20,10,33,15.80
2008,07,20,10,34,15.90
2008,07,20,10,35,16.10
2008,07,20,10,36,16.20
2008,07,20,10,37,16.20
2008,07,20,10,38,16.30
2008,07,20,10,39,16.30
2008,07,20,10,40,16.30
2008,07,20,10,41,16.20
2008,07,20,10,42,16.10
2008,07,20,10,43,16.10
2008,07,20,10,44,16.10
2008,07,20,10,45,16.10
2008,07,20,10,46,16.10
2008,07,20,10,47,16.00
2008,07,20,10,48,15.90
2008,07,20,10,49,15.80
2008,07,20,10,50,15.80
2008,07,20,10,51,15.80
2008,07,20,10,52,15.80
2008,07,20,10,53,15.80
2008,07,20,10,54,15.80
2008,07,20,10,55,15.80
2008,07,20,10,56,15.80
2008,07,20,10,57,15.90
2008,07,20,10,58,16.00
2008,07,20,10,59,16.10
2008,07,20,11,00,16.10
2008,07,20,11,01,16.20
2008,07,20,11,02,16.30
2008,07,20,11,03,16.40
2008,07,20,11,04,16.50
2008,07,20,11,05,16.70
2008,07,20,11,06,16.80
2008,07,20,11,07,16.90
2008,07,20,11,08,17.00
2008,07,20,11,09,17.10
2008,07,20,11,10,17.20
2008,07,20,11,11,17.30
2008,07,20,11,12,17.30
2008,07,20,11,13,17.30
2008,07,20,11,14,17.30
2008,07,20,11,15,17.30
2008,07,20,11,16,17.30
2008,07,20,11,17,17.30
2008,07,20,11,18,17.30
2008,07,20,11,19,17.30
2008,07,20,11,20,17.30
2008,07,20,11,21,17.30
2008,07,20,11,22,17.30
2008,07,20,11,23,17.30
2008,07,20,11,24,17.30
2008,07,20,11,25,17.30
2008,07,20,11,26,17.30
2008,07,20,11,27,17.30
2008,07,20,11,28,17.30
2008,07,20,11,29,17.30
2008,07,20,11,30,17.40
2008,07,20,11,31,17.50
2008,07,20,11,32,17.50
2008,07,20,11,33,17.50
2008,07,20,11,34,17.50
2008,07,20,11,35,17.50
2008,07,20,11,36,17.50
2008,07,20,11,37,17.40
2008,07,20,11,38,17.50
2008,07,20,11,39,17.40
2008,07,20,11,40,17.40
2008,07,20,11,41,17.50
2008,07,20,11,42,17.50
2008,07,20,11,43,17.40
2008,07,20,11,44,17.20
2008,07,20,11,45,17.10
2008,07,20,11,46,17.00
2008,07,20,11,47,16.90
2008,07,20,11,48,16.80
2008,07,20,11,49,16.80
2008,07,20,11,50,16.80
2008,07,20,11,51,16.80
2008,07,20,11,52,16.70
2008,07,20,11,53,16.70
2008,07,20,11,54,16.80
2008,07,20,11,55,16.80
2008,07,20,11,56,16.80
2008,07,20,11,57,16.90
2008,07,20,11,58,16.90
2008,07,20,11,59,17.00
2008,07,20,12,00,17.00
2008,07,20,12,01,17.00
2008,07,20,12,02,17.10
2008,07,20,12,03,17.10
2008,07,20,12,04,17.10
2008,07,20,12,05,17.10
2008,07,20,12,06,17.10
2008,07,20,12,07,17.00
2008,07,20,12,08,17.00
2008,07,20,12,09,17.10
2008,07,20,12,10,17.20
2008,07,20,12,11,17.30
2008,07,20,12,12,17.30
2008,07,20,12,13,17.30
2008,07,20,12,14,17.30
2008,07,20,12,15,17.30
2008,07,20,12,16,17.40
2008,07,20,12,17,17.40
2008,07,20,12,18,17.40
2008,07,20,12,19,17.30
2008,07,20,12,20,17.30
2008,07,20,12,21,17.30
2008,07,20,12,22,17.30
2008,07,20,12,23,17.20
2008,07,20,12,24,17.20
2008,07,20,12,25,17.20
2008,07,20,12,26,17.20
2008,07,20,12,27,17.20
2008,07,20,12,28,17.30
2008,07,20,12,29,17.40
2008,07,20,12,30,17.50
2008,07,20,12,31,17.60
2008,07,20,12,32,17.80
2008,07,20,12,33,17.90
2008,07,20,12,34,18.10
2008,07,20,12,35,18.20
2008,07,20,12,36,18.40
2008,07,20,12,37,18.50
2008,07,20,12,38,18.50
2008,07,20,12,39,18.60
2008,07,20,12,40,18.50
2008,07,20,12,41,18.50
2008,07,20,12,42,18.50
2008,07,20,12,43,18.40
2008,07,20,12,44,18.40
2008,07,20,12,45,18.50
2008,07,20,12,46,18.60
2008,07,20,12,47,18.60
2008,07,20,12,48,18.70
2008,07,20,12,49,18.80
2008,07,20,12,50,18.90
2008,07,20,12,51,18.90
2008,07,20,12,52,18.90
2008,07,20,12,53,18.80
2008,07,20,12,54,18.70
2008,07,20,12,55,18.60
2008,07,20,12,56,18.60
2008,07,20,12,57,18.60
2008,07,20,12,58,18.60
2008,07,20,12,59,18.50
2008,07,20,13,00,18.40
2008,07,20,13,01,18.30
2008,07,20,13,02,18.30
2008,07,20,13,03,18.40
2008,07,20,13,04,18.40
2008,07,20,13,05,18.50
2008,07,20,13,06,18.60
2008,07,20,13,07,18.60
2008,07,20,13,08,18.70
2008,07,20,13,09,18.80
2008,07,20,13,10,18.90
2008,07,20,13,11,18.90
2008,07,20,13,12,18.90
2008,07,20,13,13,19.00
2008,07,20,13,14,19.10
2008,07,20,13,15,19.10
2008,07,20,13,16,19.10
2008,07,20,13,17,19.10
2008,07,20,13,18,19.20
2008,07,20,13,19,19.30
2008,07,20,13,20,19.30
2008,07,20,13,21,19.40
2008,07,20,13,22,19.50
2008,07,20,13,23,19.50
2008,07,20,13,24,19.60
2008,07,20,13,25,19.60
2008,07,20,13,26,19.60
2008,07,20,13,27,19.60
2008,07,20,13,28,19.60
2008,07,20,13,29,19.50
2008,07,20,13,30,19.40
2008,07,20,13,31,19.30
2008,07,20,13,32,19.10
2008,07,20,13,33,19.10
2008,07,20,13,34,18.90
2008,07,20,13,35,18.90
2008,07,20,13,36,18.90
2008,07,20,13,37,18.90
2008,07,20,13,38,18.90
2008,07,20,13,39,18.90
2008,07,20,13,40,18.90
2008,07,20,13,41,18.90
2008,07,20,13,42,18.90
2008,07,20,13,43,19.00
2008,07,20,13,44,19.10
2008,07,20,13,45,19.20
2008,07,20,13,46,19.20
2008,07,20,13,47,19.20
2008,07,20,13,48,19.10
2008,07,20,13,49,19.10
2008,07,20,13,50,19.10
2008,07,20,13,51,19.10
2008,07,20,13,52,19.10
2008,07,20,13,53,19.20
2008,07,20,13,54,19.20
2008,07,20,13,55,19.20
2008,07,20,13,56,19.30
2008,07,20,13,57,19.40
2008,07,20,13,58,19.50
2008,07,20,13,59,19.50
2008,07,20,14,00,19.60
2008,07,20,14,01,19.60
2008,07,20,14,02,19.80
2008,07,20,14,03,19.80
2008,07,20,14,04,19.80
2008,07,20,14,05,19.80
2008,07,20,14,06,19.80
2008,07,20,14,07,19.80
2008,07,20,14,08,19.80
2008,07,20,14,09,19.80
2008,07,20,14,10,19.90
2008,07,20,14,11,20.00
2008,07,20,14,12,20.10
2008,07,20,14,13,20.20
2008,07,20,14,14,20.30
2008,07,20,14,15,20.30
2008,07,20,14,16,20.30
2008,07,20,14,17,20.20
2008,07,20,14,18,20.20
2008,07,20,14,19,20.20
2008,07,20,14,20,20.20
2008,07,20,14,21,20.30
2008,07,20,14,22,20.30
2008,07,20,14,23,20.40
2008,07,20,14,24,20.40
2008,07,20,14,25,20.50
2008,07,20,14,26,20.50
2008,07,20,14,27,20.50
2008,07,20,14,28,20.50
2008,07,20,14,29,20.50
2008,07,20,14,30,20.50
2008,07,20,14,31,20.40
2008,07,20,14,32,20.30
2008,07,20,14,33,20.20
2008,07,20,14,34,20.20
2008,07,20,14,35,20.20
2008,07,20,14,36,20.20
2008,07,20,14,37,20.40
2008,07,20,14,38,20.60
2008,07,20,14,39,20.70
2008,07,20,14,40,20.70
2008,07,20,14,41,20.70
2008,07,20,14,42,20.80
2008,07,20,14,43,20.80
2008,07,20,14,44,20.80
2008,07,20,14,45,20.90
2008,07,20,14,46,21.00
2008,07,20,14,47,21.10
2008,07,20,14,48,21.20
2008,07,20,14,49,21.20
2008,07,20,14,50,21.20
2008,07,20,14,51,21.30
2008,07,20,14,52,21.40
2008,07,20,14,53,21.50
2008,07,20,14,54,21.60
2008,07,20,14,55,21.60
2008,07,20,14,56,21.60
2008,07,20,14,57,21.70
2008,07,20,14,58,21.80
2008,07,20,14,59,21.80
2008,07,20,15,00,22.00
2008,07,20,15,01,22.10
2008,07,20,15,02,22.10
2008,07,20,15,03,22.10
2008,07,20,15,04,22.20
2008,07,20,15,05,22.30
2008,07,20,15,06,22.40
2008,07,20,15,07,22.60
2008,07,20,15,08,22.60
2008,07,20,15,09,22.60
2008,07,20,15,10,22.50
2008,07,20,15,11,22.40
2008,07,20,15,12,22.40
2008,07,20,15,13,22.60
2008,07,20,15,14,22.80
2008,07,20,15,15,23.00
2008,07,20,15,16,23.20
2008,07,20,15,17,23.30
2008,07,20,15,18,23.40
2008,07,20,15,19,23.50
2008,07,20,15,20,23.60
2008,07,20,15,21,23.60
2008,07,20,15,22,23.50
2008,07,20,15,23,23.40
2008,07,20,15,24,23.20
2008,07,20,15,25,23.00
2008,07,20,15,26,22.70
2008,07,20,15,27,22.50
2008,07,20,15,28,22.40
2008,07,20,15,29,22.40
2008,07,20,15,30,22.40
2008,07,20,15,31,22.40
2008,07,20,15,32,22.50
2008,07,20,15,33,22.60
2008,07,20,15,34,22.60
2008,07,20,15,35,22.70
2008,07,20,15,36,22.70
2008,07,20,15,37,22.80
2008,07,20,15,38,22.90
2008,07,20,15,39,22.90
2008,07,20,15,40,23.10
2008,07,20,15,41,23.30
2008,07,20,15,42,23.50
2008,07,20,15,43,23.60
2008,07,20,15,44,23.70
2008,07,20,15,45,23.60
2008,07,20,15,46,23.40
2008,07,20,15,47,23.30
2008,07,20,15,48,23.20
2008,07,20,15,49,23.20
2008,07,20,15,50,23.20
2008,07,20,15,51,23.00
2008,07,20,15,52,22.80
2008,07,20,15,53,22.60
2008,07,20,15,54,22.60
2008,07,20,15,55,22.50
2008,07,20,15,56,22.50
2008,07,20,15,57,22.40
2008,07,20,15,58,22.30
2008,07,20,15,59,22.30
2008,07,20,16,00,22.30
2008,07,20,16,01,22.40
2008,07,20,16,02,22.50
2008,07,20,16,03,22.60
2008,07,20,16,04,22.60
2008,07,20,16,05,22.60
2008,07,20,16,06,22.60
2008,07,20,16,07,22.60
2008,07,20,16,08,22.70
2008,07,20,16,09,22.80
2008,07,20,16,10,22.80
2008,07,20,16,11,22.80
2008,07,20,16,12,22.90
2008,07,20,16,13,23.00
2008,07,20,16,14,23.10
2008,07,20,16,15,23.20
2008,07,20,16,16,23.20
2008,07,20,16,17,23.10
2008,07,20,16,18,23.10
2008,07,20,16,19,23.10
2008,07,20,16,20,23.10
2008,07,20,16,21,23.10
2008,07,20,16,22,23.10
2008,07,20,16,23,23.10
2008,07,20,16,24,23.20
2008,07,20,16,25,23.30
2008,07,20,16,26,23.50
2008,07,20,16,27,23.80
2008,07,20,16,28,24.00
2008,07,20,16,29,24.40
2008,07,20,16,30,24.60
2008,07,20,16,31,24.80
2008,07,20,16,32,24.90
2008,07,20,16,33,24.90
2008,07,20,16,34,25.00
2008,07,20,16,35,25.10
2008,07,20,16,36,25.20
2008,07,20,16,37,25.20
2008,07,20,16,38,25.30
2008,07,20,16,39,25.30
2008,07,20,16,40,25.30
2008,07,20,16,41,25.30
2008,07,20,16,42,25.30
2008,07,20,16,43,25.30
2008,07,20,16,44,25.30
2008,07,20,16,45,25.40
2008,07,20,16,46,25.30
2008,07,20,16,47,25.30
2008,07,20,16,48,25.20
2008,07,20,16,49,25.20
2008,07,20,16,50,25.20
2008,07,20,16,51,25.10
2008,07,20,16,52,25.00
2008,07,20,16,53,25.00
2008,07,20,16,54,24.90
2008,07,20,16,55,24.90
2008,07,20,16,56,25.00
2008,07,20,16,57,24.90
2008,07,20,16,58,24.90
2008,07,20,16,59,24.80
2008,07,20,17,00,24.80
2008,07,20,17,01,24.70
2008,07,20,17,02,24.70
2008,07,20,17,03,24.70
2008,07,20,17,04,24.60
2008,07,20,17,05,24.50
2008,07,20,17,06,24.40
2008,07,20,17,07,24.40
2008,07,20,17,08,24.40
2008,07,20,17,09,24.40
2008,07,20,17,10,24.50
2008,07,20,17,11,24.60
2008,07,20,17,12,24.60
2008,07,20,17,13,24.60
2008,07,20,17,14,24.70
2008,07,20,17,15,24.70
2008,07,20,17,16,24.70
2008,07,20,17,17,24.70
2008,07,20,17,18,24.60
2008,07,20,17,19,24.50
2008,07,20,17,20,24.40
2008,07,20,17,21,24.40
2008,07,20,17,22,24.40
2008,07,20,17,23,24.40
2008,07,20,17,24,24.50
2008,07,20,17,25,24.50
2008,07,20,17,26,24.60
2008,07,20,17,27,24.60
2008,07,20,17,28,24.60
2008,07,20,17,29,24.50